| time (UTC) | temp F | wind direction | speed MPH | gust MPH | rain 1hr in | rain 24hr in | rain mn in | humidity % | barometer mb |
| 20260503225016 | 69 | 21 | 2.0 | 12.0 | 0.00 | 0.00 | 0.00 | 20 | 1011.6 |
| 20260503224520 | 69 | 28 | 3.0 | 12.0 | 0.00 | 0.00 | 0.00 | 20 | 1011.6 |
| 20260503224019 | 69 | 74 | 5.0 | 16.0 | 0.00 | 0.00 | 0.00 | 20 | 1011.6 |
| 20260503223521 | 70 | 15 | 6.0 | 18.0 | 0.00 | 0.00 | 0.00 | 19 | 1011.7 |
| 20260503223020 | 70 | 314 | 11.0 | 18.0 | 0.00 | 0.00 | 0.00 | 19 | 1011.8 |
| 20260503222519 | 70 | 291 | 5.0 | 27.0 | 0.00 | 0.00 | 0.00 | 17 | 1011.8 |
| 20260503222020 | 71 | 260 | 13.0 | 27.0 | 0.00 | 0.00 | 0.00 | 17 | 1011.9 |
| 20260503221524 | 71 | 240 | 8.0 | 15.0 | 0.00 | 0.00 | 0.00 | 17 | 1011.5 |
| 20260503221027 | 72 | 248 | 8.0 | 16.0 | 0.00 | 0.00 | 0.00 | 16 | 1011.6 |
| 20260503220524 | 72 | 246 | 10.0 | 16.0 | 0.00 | 0.00 | 0.00 | 16 | 1011.6 |
| 20260503220025 | 72 | 226 | 7.0 | 14.0 | 0.00 | 0.00 | 0.00 | 16 | 1011.6 |
| 20260503215524 | 73 | 228 | 9.0 | 14.0 | 0.00 | 0.00 | 0.00 | 17 | 1011.7 |
| 20260503215023 | 73 | 240 | 7.0 | 13.0 | 0.00 | 0.00 | 0.00 | 17 | 1011.8 |
| 20260503214522 | 73 | 293 | 6.0 | 14.0 | 0.00 | 0.00 | 0.00 | 15 | 1011.9 |
| 20260503214021 | 73 | 340 | 6.0 | 14.0 | 0.00 | 0.00 | 0.00 | 15 | 1011.9 |
| 20260503213520 | 73 | 248 | 7.0 | 13.0 | 0.00 | 0.00 | 0.00 | 14 | 1011.9 |
| 20260503213007 | 74 | 254 | 4.0 | 10.0 | 0.00 | 0.00 | 0.00 | 14 | 1011.9 |
| 20260503212505 | 75 | 278 | 3.0 | 8.0 | 0.00 | 0.00 | 0.00 | 14 | 1011.9 |
| 20260503212005 | 75 | 22 | 3.0 | 8.0 | 0.00 | 0.00 | 0.00 | 14 | 1011.9 |
| 20260503211535 | 76 | 357 | 2.0 | 19.0 | 0.00 | 0.00 | 0.00 | 14 | 1012.0 |
| 20260503211024 | 76 | 355 | 8.0 | 19.0 | 0.00 | 0.00 | 0.00 | 13 | 1012.1 |
| 20260503210524 | 76 | 260 | 3.0 | 13.0 | 0.00 | 0.00 | 0.00 | 13 | 1012.2 |
| 20260503210009 | 75 | 360 | 7.0 | 14.0 | 0.00 | 0.00 | 0.00 | 14 | 1012.2 |
| 20260503205513 | 75 | 285 | 10.0 | 14.0 | 0.00 | 0.00 | 0.00 | 14 | 1012.2 |
| 20260503205008 | 74 | 269 | 6.0 | 16.0 | 0.00 | 0.00 | 0.00 | 14 | 1012.3 |
| 20260503204509 | 76 | 276 | 7.0 | 16.0 | 0.00 | 0.00 | 0.00 | 14 | 1012.5 |
| 20260503204006 | 75 | 349 | 4.0 | 17.0 | 0.00 | 0.00 | 0.00 | 14 | 1012.6 |
| 20260503203507 | 74 | 300 | 6.0 | 17.0 | 0.00 | 0.00 | 0.00 | 14 | 1012.7 |
| 20260503203006 | 75 | 353 | 4.0 | 10.0 | 0.00 | 0.00 | 0.00 | 15 | 1012.7 |
| 20260503202505 | 75 | 21 | 3.0 | 17.0 | 0.00 | 0.00 | 0.00 | 15 | 1012.8 |
| 20260503202005 | 75 | 283 | 8.0 | 17.0 | 0.00 | 0.00 | 0.00 | 13 | 1012.9 |
| 20260503201509 | 76 | 336 | 2.0 | 11.0 | 0.00 | 0.00 | 0.00 | 15 | 1012.8 |
| 20260503201008 | 74 | 295 | 4.0 | 14.0 | 0.00 | 0.00 | 0.00 | 16 | 1012.9 |
| 20260503200508 | 74 | 293 | 8.0 | 16.0 | 0.00 | 0.00 | 0.00 | 14 | 1013.0 |
| 20260503200008 | 75 | 281 | 8.0 | 16.0 | 0.00 | 0.00 | 0.00 | 14 | 1013.0 |
| 20260503195507 | 75 | 342 | 6.0 | 15.0 | 0.00 | 0.00 | 0.00 | 13 | 1013.0 |
| 20260503195006 | 77 | 280 | 6.0 | 10.0 | 0.00 | 0.00 | 0.00 | 14 | 1013.2 |
| 20260503194508 | 76 | 321 | 6.0 | 13.0 | 0.00 | 0.00 | 0.00 | 14 | 1013.2 |
| 20260503194007 | 75 | 348 | 6.0 | 24.0 | 0.00 | 0.00 | 0.00 | 14 | 1013.2 |
| 20260503193510 | 74 | 300 | 11.0 | 24.0 | 0.00 | 0.00 | 0.00 | 14 | 1013.3 |
| 20260503193029 | 74 | 360 | 5.0 | 12.0 | 0.00 | 0.00 | 0.00 | 15 | 1013.4 |
| 20260503192510 | 74 | 356 | 5.0 | 15.0 | 0.00 | 0.00 | 0.00 | 16 | 1013.5 |
| 20260503192010 | 73 | 354 | 7.0 | 20.0 | 0.00 | 0.00 | 0.00 | 15 | 1013.7 |
| 20260503191514 | 73 | 300 | 9.0 | 21.0 | 0.00 | 0.00 | 0.00 | 14 | 1013.9 |
| 20260503191011 | 74 | 303 | 8.0 | 21.0 | 0.00 | 0.00 | 0.00 | 14 | 1013.9 |
| 20260503190512 | 74 | 291 | 10.0 | 18.0 | 0.00 | 0.00 | 0.00 | 15 | 1014.0 |
| 20260503190024 | 74 | 290 | 7.0 | 18.0 | 0.00 | 0.00 | 0.00 | 14 | 1014.0 |
| 20260503185512 | 74 | 285 | 10.0 | 18.0 | 0.00 | 0.00 | 0.00 | 14 | 1014.2 |
| 20260503185012 | 74 | 302 | 10.0 | 19.0 | 0.00 | 0.00 | 0.00 | 13 | 1014.2 |
| 20260503184516 | 74 | 293 | 9.0 | 19.0 | 0.00 | 0.00 | 0.00 | 14 | 1014.2 |
| 20260503184010 | 74 | 256 | 12.0 | 19.0 | 0.00 | 0.00 | 0.00 | 14 | 1014.4 |
| 20260503183510 | 73 | 310 | 11.0 | 23.0 | 0.00 | 0.00 | 0.00 | 14 | 1014.5 |
| 20260503183010 | 73 | 252 | 12.0 | 23.0 | 0.00 | 0.00 | 0.00 | 13 | 1014.5 |
| 20260503182514 | 73 | 254 | 10.0 | 18.0 | 0.00 | 0.00 | 0.00 | 14 | 1014.7 |
| 20260503182011 | 72 | 256 | 12.0 | 19.0 | 0.00 | 0.00 | 0.00 | 14 | 1014.6 |
| 20260503181512 | 72 | 261 | 9.0 | 19.0 | 0.00 | 0.00 | 0.00 | 14 | 1014.7 |
| 20260503181014 | 72 | 265 | 9.0 | 19.0 | 0.00 | 0.00 | 0.00 | 14 | 1014.9 |
| 20260503180513 | 72 | 256 | 9.0 | 19.0 | 0.00 | 0.00 | 0.00 | 15 | 1015.0 |
| 20260503180012 | 72 | 282 | 8.0 | 19.0 | 0.00 | 0.00 | 0.00 | 14 | 1015.1 |
| 20260503175509 | 72 | 269 | 11.0 | 19.0 | 0.00 | 0.00 | 0.00 | 14 | 1015.2 |
| 20260503175008 | 71 | 265 | 11.0 | 18.0 | 0.00 | 0.00 | 0.00 | 14 | 1015.3 |
| 20260503174513 | 70 | 263 | 10.0 | 15.0 | 0.00 | 0.00 | 0.00 | 14 | 1015.3 |
| 20260503174011 | 70 | 253 | 10.0 | 15.0 | 0.00 | 0.00 | 0.00 | 15 | 1015.4 |
| 20260503173510 | 70 | 270 | 10.0 | 15.0 | 0.00 | 0.00 | 0.00 | 17 | 1015.5 |
| 20260503173017 | 70 | 282 | 8.0 | 16.0 | 0.00 | 0.00 | 0.00 | 16 | 1015.6 |
| 20260503172509 | 69 | 260 | 10.0 | 18.0 | 0.00 | 0.00 | 0.00 | 16 | 1015.6 |
| 20260503172010 | 69 | 245 | 10.0 | 18.0 | 0.00 | 0.00 | 0.00 | 16 | 1015.6 |
| 20260503171509 | 69 | 245 | 6.0 | 16.0 | 0.00 | 0.00 | 0.00 | 18 | 1015.8 |
| 20260503171012 | 69 | 253 | 7.0 | 16.0 | 0.00 | 0.00 | 0.00 | 17 | 1015.8 |
| 20260503170508 | 69 | 301 | 9.0 | 15.0 | 0.00 | 0.00 | 0.00 | 16 | 1015.9 |
| 20260503151013 | 59 | 205 | 4.0 | 10.0 | 0.00 | 0.00 | 0.00 | 34 | 1016.8 |
| 20260503150514 | 59 | 194 | 6.0 | 10.0 | 0.00 | 0.00 | 0.00 | 33 | 1016.8 |
| 20260503131013 | 51 | 179 | 4.0 | 8.0 | 0.00 | 0.00 | 0.00 | 43 | 1016.8 |
| 20260503130513 | 51 | 219 | 2.0 | 5.0 | 0.00 | 0.00 | 0.00 | 43 | 1016.8 |
| 20260503110509 | 48 | 182 | 2.0 | 6.0 | 0.00 | 0.00 | 0.00 | 39 | 1016.1 |
| 20260503090508 | 47 | 195 | 3.0 | 5.0 | 0.00 | 0.00 | 0.00 | 34 | 1016.4 |
| 20260503081509 | 47 | 198 | 4.0 | 7.0 | 0.00 | 0.00 | 0.00 | 35 | 1016.5 |
| 20260503081007 | 46 | 192 | 3.0 | 6.0 | 0.00 | 0.00 | 0.00 | 36 | 1016.6 |
| 20260503080507 | 46 | 159 | 3.0 | 5.0 | 0.00 | 0.00 | 0.00 | 37 | 1016.7 |
| 20260503072512 | 47 | 103 | 1.0 | 4.0 | 0.00 | 0.00 | 0.00 | 31 | 1016.9 |
| 20260503072010 | 46 | 102 | 1.0 | 2.0 | 0.00 | 0.00 | 0.00 | 32 | 1017.0 |
| 20260503071530 | 45 | 102 | 0.0 | 2.0 | 0.00 | 0.00 | 0.00 | 34 | 1017.0 |
| 20260503071015 | 45 | 102 | 0.0 | 3.0 | 0.00 | 0.00 | 0.00 | 37 | 1017.0 |
| 20260503070515 | 45 | 102 | 1.0 | 3.0 | 0.00 | 0.00 | 0.00 | 39 | 1017.0 |
| 20260503055015 | 50 | 102 | 0.0 | 2.0 | 0.00 | 0.00 | 0.00 | 36 | 1017.1 |
| 20260503054528 | 50 | 102 | 0.0 | 1.0 | 0.00 | 0.00 | 0.00 | 34 | 1017.1 |
| 20260503054020 | 49 | 102 | 0.0 | 1.0 | 0.00 | 0.00 | 0.00 | 36 | 1017.0 |
| 20260503053516 | 49 | 102 | 0.0 | 1.0 | 0.00 | 0.00 | 0.00 | 35 | 1017.1 |
| 20260503053014 | 49 | 102 | 0.0 | 0.0 | 0.00 | 0.00 | 0.00 | 37 | 1017.2 |
| 20260503052513 | 49 | 102 | 0.0 | 1.0 | 0.00 | 0.00 | 0.00 | 38 | 1017.1 |
| 20260503052018 | 49 | 102 | 0.0 | 3.0 | 0.00 | 0.00 | 0.00 | 37 | 1017.1 |
| 20260503051517 | 49 | 102 | 0.0 | 4.0 | 0.00 | 0.00 | 0.00 | 41 | 1017.2 |
| 20260503051018 | 50 | 101 | 2.0 | 4.0 | 0.00 | 0.00 | 0.00 | 36 | 1017.2 |
| 20260503050517 | 50 | 101 | 1.0 | 3.0 | 0.00 | 0.00 | 0.00 | 37 | 1017.1 |
| 20260503050015 | 51 | 98 | 1.0 | 2.0 | 0.00 | 0.00 | 0.00 | 35 | 1017.2 |
| 20260503045519 | 51 | 98 | 0.0 | 2.0 | 0.00 | 0.00 | 0.00 | 34 | 1017.2 |
| 20260503045015 | 51 | 98 | 1.0 | 2.0 | 0.00 | 0.00 | 0.00 | 33 | 1017.2 |
| 20260503044519 | 51 | 98 | 1.0 | 2.0 | 0.00 | 0.00 | 0.00 | 30 | 1017.2 |
| 20260503044018 | 51 | 98 | 0.0 | 2.0 | 0.00 | 0.00 | 0.00 | 29 | 1017.2 |
| 20260503043520 | 51 | 98 | 0.0 | 2.0 | 0.00 | 0.00 | 0.00 | 29 | 1017.2 |
| 20260503043016 | 51 | 98 | 1.0 | 2.0 | 0.00 | 0.00 | 0.00 | 28 | 1017.1 |
| 20260503042516 | 52 | 98 | 1.0 | 2.0 | 0.00 | 0.00 | 0.00 | 28 | 1017.2 |
| 20260503042016 | 53 | 98 | 1.0 | 2.0 | 0.00 | 0.00 | 0.00 | 27 | 1017.2 |
| 20260503041514 | 55 | 98 | 0.0 | 2.0 | 0.00 | 0.00 | 0.00 | 26 | 1017.2 |
| 20260503041015 | 55 | 98 | 0.0 | 3.0 | 0.00 | 0.00 | 0.00 | 25 | 1017.2 |
| 20260503040516 | 56 | 98 | 0.0 | 3.0 | 0.00 | 0.00 | 0.00 | 26 | 1017.1 |
| 20260503040021 | 56 | 98 | 1.0 | 4.0 | 0.00 | 0.00 | 0.00 | 25 | 1017.0 |
| 20260503035517 | 56 | 98 | 1.0 | 4.0 | 0.00 | 0.00 | 0.00 | 25 | 1017.0 |
| 20260503035018 | 56 | 98 | 2.0 | 4.0 | 0.00 | 0.00 | 0.00 | 25 | 1017.0 |
| 20260503034516 | 56 | 98 | 1.0 | 4.0 | 0.00 | 0.00 | 0.00 | 26 | 1017.0 |
| 20260503034015 | 56 | 98 | 2.0 | 4.0 | 0.00 | 0.00 | 0.00 | 25 | 1017.1 |
| 20260503033516 | 56 | 98 | 2.0 | 3.0 | 0.00 | 0.00 | 0.00 | 26 | 1017.1 |
| 20260503033026 | 55 | 98 | 1.0 | 3.0 | 0.00 | 0.00 | 0.00 | 27 | 1017.1 |
| 20260503032518 | 55 | 98 | 0.0 | 2.0 | 0.00 | 0.00 | 0.00 | 27 | 1017.1 |
| 20260503032018 | 55 | 98 | 0.0 | 2.0 | 0.00 | 0.00 | 0.00 | 29 | 1017.1 |
| 20260503031516 | 55 | 98 | 0.0 | 2.0 | 0.00 | 0.00 | 0.00 | 25 | 1017.1 |
| 20260503031016 | 54 | 98 | 0.0 | 2.0 | 0.00 | 0.00 | 0.00 | 25 | 1017.0 |
| 20260503030519 | 55 | 98 | 0.0 | 1.0 | 0.00 | 0.00 | 0.00 | 26 | 1017.1 |
| 20260503030014 | 55 | 98 | 0.0 | 0.0 | 0.00 | 0.00 | 0.00 | 26 | 1017.0 |
| 20260503025515 | 55 | 98 | 0.0 | 0.0 | 0.00 | 0.00 | 0.00 | 26 | 1017.0 |
| 20260503025015 | 56 | 98 | 0.0 | 1.0 | 0.00 | 0.00 | 0.00 | 24 | 1017.0 |
| 20260503024518 | 57 | 98 | 0.0 | 1.0 | 0.00 | 0.00 | 0.00 | 22 | 1017.0 |
| 20260503024018 | 58 | 98 | 0.0 | 1.0 | 0.00 | 0.00 | 0.00 | 23 | 1016.9 |
| 20260503023519 | 58 | 98 | 0.0 | 1.0 | 0.00 | 0.00 | 0.00 | 20 | 1016.9 |
| 20260503023019 | 60 | 98 | 0.0 | 1.0 | 0.00 | 0.00 | 0.00 | 25 | 1016.8 |
| 20260503022516 | 61 | 98 | 0.0 | 1.0 | 0.00 | 0.00 | 0.00 | 21 | 1016.8 |
| 20260503022015 | 62 | 98 | 0.0 | 1.0 | 0.00 | 0.00 | 0.00 | 18 | 1016.7 |
| 20260503021517 | 62 | 98 | 0.0 | 1.0 | 0.00 | 0.00 | 0.00 | 16 | 1016.7 |
| 20260503021015 | 63 | 98 | 0.0 | 2.0 | 0.00 | 0.00 | 0.00 | 15 | 1016.6 |
| 20260503020515 | 63 | 98 | 0.0 | 2.0 | 0.00 | 0.00 | 0.00 | 15 | 1016.6 |
| 20260503020018 | 64 | 98 | 0.0 | 3.0 | 0.00 | 0.00 | 0.00 | 15 | 1016.6 |
| 20260503015517 | 64 | 98 | 1.0 | 4.0 | 0.00 | 0.00 | 0.00 | 15 | 1016.5 |
| 20260503015017 | 64 | 98 | 2.0 | 5.0 | 0.00 | 0.00 | 0.00 | 15 | 1016.5 |
| 20260503014517 | 65 | 98 | 2.0 | 5.0 | 0.00 | 0.00 | 0.00 | 15 | 1016.5 |
| 20260503014017 | 65 | 98 | 1.0 | 5.0 | 0.00 | 0.00 | 0.00 | 14 | 1016.5 |
| 20260503013517 | 66 | 98 | 1.0 | 3.0 | 0.00 | 0.00 | 0.00 | 14 | 1016.5 |
| 20260503013020 | 66 | 98 | 0.0 | 3.0 | 0.00 | 0.00 | 0.00 | 14 | 1016.5 |
| 20260503012518 | 67 | 98 | 1.0 | 5.0 | 0.00 | 0.00 | 0.00 | 13 | 1016.4 |
| 20260503012022 | 67 | 98 | 1.0 | 5.0 | 0.00 | 0.00 | 0.00 | 12 | 1016.4 |
| 20260503011517 | 68 | 98 | 2.0 | 4.0 | 0.00 | 0.00 | 0.00 | 11 | 1016.3 |
| 20260503011016 | 68 | 99 | 1.0 | 4.0 | 0.00 | 0.00 | 0.00 | 11 | 1016.3 |
| 20260503010517 | 69 | 100 | 0.0 | 3.0 | 0.00 | 0.00 | 0.00 | 11 | 1016.3 |
| 20260503010016 | 69 | 100 | 0.0 | 5.0 | 0.00 | 0.00 | 0.00 | 11 | 1016.3 |
| 20260503005516 | 69 | 100 | 1.0 | 5.0 | 0.00 | 0.00 | 0.00 | 10 | 1016.3 |
| 20260503005019 | 70 | 100 | 1.0 | 4.0 | 0.00 | 0.00 | 0.00 | 11 | 1016.3 |
| 20260503004520 | 70 | 100 | 2.0 | 4.0 | 0.00 | 0.00 | 0.00 | 9 | 1016.3 |
| 20260503004018 | 69 | 103 | 1.0 | 7.0 | 0.00 | 0.00 | 0.00 | 8 | 1016.3 |
| 20260503003518 | 69 | 103 | 3.0 | 7.0 | 0.00 | 0.00 | 0.00 | 11 | 1016.4 |
| 20260503003036 | 70 | 101 | 3.0 | 6.0 | 0.00 | 0.00 | 0.00 | 8 | 1016.3 |
| 20260503002516 | 70 | 74 | 2.0 | 7.0 | 0.00 | 0.00 | 0.00 | 10 | 1016.4 |
| 20260503002019 | 70 | 51 | 1.0 | 7.0 | 0.00 | 0.00 | 0.00 | 10 | 1016.5 |
| 20260503001541 | 70 | 102 | 2.0 | 6.0 | 0.00 | 0.00 | 0.00 | 10 | 1016.5 |
| 20260503001022 | 70 | 103 | 3.0 | 6.0 | 0.00 | 0.00 | 0.00 | 9 | 1016.5 |
| 20260503000518 | 71 | 96 | 1.0 | 4.0 | 0.00 | 0.00 | 0.00 | 11 | 1016.5 |
| 20260503000019 | 71 | 96 | 1.0 | 6.0 | 0.00 | 0.00 | 0.00 | 9 | 1016.6 |
| 20260502235518 | 71 | 93 | 2.0 | 6.0 | 0.00 | 0.00 | 0.00 | 10 | 1016.6 |
| 20260502235017 | 71 | 71 | 2.0 | 7.0 | 0.00 | 0.00 | 0.00 | 10 | 1016.7 |
| 20260502234518 | 71 | 56 | 2.0 | 7.0 | 0.00 | 0.00 | 0.00 | 9 | 1016.7 |
| 20260502234019 | 71 | 69 | 3.0 | 7.0 | 0.00 | 0.00 | 0.00 | 8 | 1016.8 |
| 20260502233516 | 71 | 79 | 1.0 | 9.0 | 0.00 | 0.00 | 0.00 | 8 | 1016.8 |
| 20260502233026 | 71 | 98 | 5.0 | 9.0 | 0.00 | 0.00 | 0.00 | 9 | 1016.8 |
| 20260502232522 | 72 | 71 | 3.0 | 6.0 | 0.00 | 0.00 | 0.00 | 8 | 1016.8 |
| 20260502232020 | 72 | 65 | 3.0 | 9.0 | 0.00 | 0.00 | 0.00 | 8 | 1016.8 |
| 20260502231523 | 71 | 50 | 3.0 | 9.0 | 0.00 | 0.00 | 0.00 | 8 | 1016.9 |
| 20260502231021 | 71 | 103 | 2.0 | 5.0 | 0.00 | 0.00 | 0.00 | 9 | 1016.9 |
| 20260502230522 | 71 | 110 | 2.0 | 8.0 | 0.00 | 0.00 | 0.00 | 9 | 1017.0 |
| 20260502230022 | 70 | 108 | 5.0 | 8.0 | 0.00 | 0.00 | 0.00 | 8 | 1017.0 |
| 20260502225519 | 71 | 107 | 3.0 | 8.0 | 0.00 | 0.00 | 0.00 | 7 | 1017.0 |